[[{"header":{"parameterUnit":"m.s-1","parameterCategory":1,"la1":30.2992,"la2":30.254,"lo1":-89.0895,"lo2":-89.0443,"dy":0.0025,"dx":0.0025,"nx":19,"ny":19,"refTime":"2026-05-20T21:00:00:Z","depth":0,"parameterNumber":2,"parameterNumberName":"U-component_of_WINDS"},"data":[0,0,0,-1.2223,-1.2225,-1.236,-1.2361,-1.2535,-1.2536,0,0,0,0,0,0,0,0,0,0,0,-1.2181,-1.2182,-1.2222,-1.2226,-1.236,-1.2361,-1.2534,-1.2536,0,0,0,0,0,0,0,0,0,0,0,-1.218,-1.2182,-1.2183,-1.2226,-1.236,-1.2361,-1.2534,-1.2432,0,0,0,0,0,0,0,0,0,0,-1.2302,-1.2261,-1.2181,-1.2183,-1.2227,-1.236,-1.2361,-1.2428,-1.2439,-1.2473,0,-1.2501,0,-1.2521,-1.2548,-1.2548,0,0,0,-1.2228,-1.2251,-1.2289,-1.2183,-1.2228,-1.236,-1.23,-1.2434,-1.2447,-1.2488,-1.2504,-1.251,-1.2524,-1.2549,-1.255,-1.2736,-1.2737,0,0,-1.222,-1.2205,-1.228,-1.2297,-1.2273,-1.2296,-1.2304,-1.2442,-1.2459,-1.2504,-1.2514,-1.2527,-1.255,-1.2551,-1.2735,-1.2736,0,0,0,-1.2198,-1.22,-1.2234,-1.229,-1.2314,-1.23,-1.2309,-1.2452,-1.2465,-1.2516,-1.2529,-1.2551,-1.2553,-1.2734,-1.2735,-1.2757,0,0,0,-1.2193,-1.2186,-1.2231,-1.2223,-1.2311,-1.2384,-1.2317,-1.2455,-1.2471,-1.2528,-1.2551,-1.2555,-1.2733,-1.2735,-1.2754,-1.277,0,0,0,-1.2173,-1.2184,-1.2202,-1.2221,-1.2278,-1.2382,-1.2403,-1.2459,-1.2479,-1.2548,-1.2555,-1.2733,-1.2735,-1.2752,-1.2766,-1.2814,0,0,0,-1.2147,-1.2221,-1.2203,-1.2291,-1.2277,-1.2394,-1.2402,-1.2491,-1.2553,-1.2552,-1.2734,-1.2735,-1.2752,-1.2764,-1.2811,-1.285,-1.2865,0,0,-1.2232,-1.2231,-1.2284,-1.2271,-1.2387,-1.2375,-1.2495,-1.2568,-1.2591,-1.2687,-1.2692,-1.2755,-1.2766,-1.2813,-1.2954,-1.2965,0,0,0,-1.2306,-1.2343,-1.2377,-1.2434,-1.249,-1.254,-1.2596,-1.2623,-1.2705,-1.2636,-1.2786,-1.2793,-1.2821,-1.2841,-1.2851,-1.2876,-1.2744,-1.2743,-1.2743,-1.2403,-1.2426,-1.2515,-1.2554,-1.261,-1.2666,-1.2714,-1.2761,-1.2769,-1.2804,-1.2833,-1.2915,-1.2937,-1.2944,-1.297,-1.2856,-1.2856,-1.2856,-1.2856,-1.2529,-1.2586,-1.2594,-1.2683,-1.2707,-1.2784,-1.2842,-1.2845,-1.2921,-1.2895,-1.2921,-1.289,-1.2956,-1.298,-1.2858,-1.2858,-1.2857,-1.2857,-1.2857,-1.2595,-1.2626,-1.2656,-1.2741,-1.2805,-1.2843,-1.2915,-1.2936,-1.2956,-1.2982,-1.3014,-1.3014,-1.3016,-1.2996,-1.2996,-1.2996,-1.2997,-1.2997,-1.2997,-1.2651,-1.2684,-1.2741,-1.2806,-1.2846,-1.29,-1.2959,-1.2999,-1.3049,-1.3059,-1.3059,-1.3064,-1.2958,-1.293,-1.3001,-1.3001,-1.3,-1.3,-1.2999,-1.2768,-1.2745,-1.2832,-1.2871,-1.295,-1.3012,-1.3038,-1.3118,-1.3155,-1.319,-1.319,-1.3108,-1.3109,-1.3101,-1.3079,-1.3184,-1.3184,-1.3184,-1.3184,-1.2823,-1.2826,-1.2919,-1.2981,-1.3044,-1.3076,-1.3176,-1.3223,-1.3268,-1.3292,-1.3281,-1.3253,-1.3244,-1.325,-1.324,-1.3219,-1.3357,-1.3358,-1.3358,-1.2897,-1.2906,-1.2986,-1.3027,-1.3091,-1.3146,-1.3241,-1.3314,-1.336,-1.3365,-1.3312,-1.3305,-1.326,-1.3244,-1.3247,-1.323,-1.3192,0,0]},{"header":{"parameterUnit":"m.s-1","parameterCategory":1,"la1":30.2992,"la2":30.254,"lo1":-89.0895,"lo2":-89.0443,"dy":0.0025,"dx":0.0025,"nx":19,"ny":19,"refTime":"2026-05-20T21:00:00:Z","depth":0,"parameterNumber":3,"parameterNumberName":"V-component_of_WINDS"},"data":[0,0,0,4.3396,4.3403,4.3728,4.3729,4.411,4.4113,0,0,0,0,0,0,0,0,0,0,0,4.3281,4.3283,4.3396,4.3403,4.3727,4.3729,4.411,4.4113,0,0,0,0,0,0,0,0,0,0,0,4.328,4.3283,4.3285,4.3404,4.3727,4.3729,4.4109,4.3876,0,0,0,0,0,0,0,0,0,0,4.3566,4.3442,4.3282,4.3285,4.3406,4.3727,4.3729,4.3865,4.389,4.3949,0,4.3998,0,4.4062,4.4137,4.4138,0,0,0,4.3417,4.3421,4.3526,4.3286,4.3409,4.3726,4.3585,4.3879,4.3908,4.3982,4.4004,4.4019,4.4068,4.4139,4.4141,4.444,4.4441,0,0,4.3399,4.3329,4.3506,4.3543,4.3493,4.3575,4.3595,4.3897,4.3916,4.4006,4.4029,4.4074,4.4142,4.4144,4.444,4.4441,0,0,0,4.3338,4.3316,4.3414,4.3527,4.3588,4.3584,4.3607,4.3902,4.394,4.4033,4.4079,4.4143,4.4148,4.4439,4.444,4.4413,0,0,0,4.3328,4.3281,4.3406,4.3366,4.3582,4.375,4.3605,4.3919,4.3955,4.4077,4.4144,4.4151,4.4438,4.444,4.4412,4.4411,0,0,0,4.3266,4.3274,4.3315,4.3362,4.3499,4.3746,4.3802,4.3929,4.3983,4.4138,4.4152,4.4438,4.4439,4.4411,4.441,4.4472,0,0,0,4.318,4.3284,4.3313,4.3447,4.3496,4.3726,4.3801,4.3976,4.4106,4.4145,4.4438,4.444,4.4411,4.441,4.447,4.4512,4.4522,0,0,4.3273,4.3293,4.3377,4.3413,4.3621,4.3682,4.3886,4.407,4.4147,4.4338,4.4346,4.4412,4.441,4.4471,4.4601,4.4609,0,0,0,4.3383,4.3443,4.3513,4.3635,4.3778,4.3901,4.4061,4.4129,4.4294,4.4231,4.4452,4.4453,4.4491,4.4515,4.4521,4.4559,4.4447,4.4447,4.4447,4.3416,4.351,4.3656,4.3788,4.3904,4.4068,4.4171,4.429,4.435,4.44,4.4458,4.4526,4.455,4.4556,4.4594,4.4486,4.4486,4.4486,4.4486,4.3562,4.3662,4.3739,4.3908,4.4006,4.4148,4.4309,4.4346,4.4492,4.449,4.4528,4.4519,4.4561,4.46,4.4485,4.4485,4.4485,4.4485,4.4485,4.3596,4.366,4.3741,4.3926,4.4058,4.4187,4.4324,4.4408,4.4487,4.4525,4.4596,4.4597,4.4609,4.4552,4.4552,4.4553,4.4553,4.4553,4.4553,4.36,4.3692,4.3799,4.3959,4.4048,4.4175,4.4338,4.4428,4.4548,4.4598,4.4599,4.4653,4.4547,4.452,4.4557,4.4557,4.4556,4.4556,4.4555,4.3717,4.3704,4.3868,4.3957,4.4151,4.4276,4.438,4.4554,4.464,4.4704,4.4751,4.4658,4.4684,4.468,4.4658,4.4729,4.4729,4.4729,4.4729,4.3747,4.3768,4.3955,4.4092,4.4235,4.4345,4.4527,4.4654,4.4783,4.4842,4.4843,4.482,4.4811,4.4843,4.4835,4.4816,4.4926,4.4926,4.4927,4.3825,4.3864,4.4004,4.4131,4.4289,4.4422,4.4596,4.4748,4.4892,4.4936,4.489,4.4881,4.4846,4.4829,4.4874,4.486,4.4827,0,0]}]]